[[{"header":{"parameterUnit":"m.s-1","parameterCategory":1,"la1":30.2991,"la2":30.254,"lo1":-89.0895,"lo2":-89.0444,"dy":0.0017,"dx":0.0017,"nx":28,"ny":28,"refTime":"2024-06-18T09:00:00:Z","depth":0,"parameterNumber":2,"parameterNumberName":"U-component_of_WINDS"},"data":[0,0,0,0,0,0,0,0,0,0,0,0,0,0,0,0,0,0,0,0,0,0,0,0,0,0,0,0,0,0,0,0,0,0,0,0,0,0,0,0,0,0,0,0,0,0,0,0,0,0,0,0,0,0,0,0,0,0,-8.8902,-8.8902,0,-8.8896,-8.8895,-8.8895,-8.8668,-8.8662,-8.8657,-8.8651,-8.8644,-8.865,-8.8655,0,0,0,0,0,0,0,0,0,0,0,0,0,-8.8718,-8.8722,-8.8902,-8.8902,-8.8902,-8.8896,-8.8895,-8.8895,-8.8669,-8.8662,-8.8655,-8.8648,-8.8643,-8.8649,-8.8655,0,0,0,0,0,0,0,0,0,0,0,0,0,-8.8763,-8.8724,-8.8902,-8.8788,-8.8778,-8.8896,-8.8895,-8.8895,-8.8671,-8.8662,-8.8653,-8.8645,-8.8641,-8.8648,-8.8656,-8.8882,0,0,-8.8681,-8.8684,0,0,0,0,0,0,0,0,-8.8761,-8.877,-8.8805,-8.8796,-8.8785,-8.8774,-8.8828,-8.8891,-8.8673,-8.8712,-8.8651,-8.8641,-8.8695,-8.8698,-8.8716,-8.8882,-8.8882,-8.8681,-8.8686,-8.869,-8.8692,0,0,0,0,0,0,0,-8.8758,-8.8769,-8.8899,-8.8806,-8.8794,-8.8737,-8.8734,-8.8839,-8.8753,-8.8707,-8.8691,-8.8693,-8.8687,-8.8709,-8.8714,-8.8881,-8.8681,-8.8688,-8.8693,-8.8696,-8.923,-8.9238,0,0,0,0,0,0,-8.8771,-8.8768,-8.8899,-8.8899,-8.8751,-8.8748,-8.8744,-8.8786,-8.8751,-8.8737,-8.8701,-8.8683,-8.8699,-8.8705,-8.8713,-8.8971,-8.8689,-8.8697,-8.8702,-8.922,-8.9232,-8.9242,0,0,0,0,0,0,-8.8768,-8.8785,-8.89,-8.8829,-8.884,-8.876,-8.881,-8.8791,-8.8811,-8.8746,-8.8729,-8.8738,-8.8693,-8.8702,-8.8841,-8.8968,-8.8701,-8.8708,-8.9209,-8.9224,-8.9237,-8.9493,0,0,0,0,0,0,-8.8763,-8.8785,-8.887,-8.8833,-8.8844,-8.9029,-8.8817,-8.8797,-8.8826,-8.8802,-8.8777,-8.8764,-8.8686,-8.883,-8.8849,-8.8974,-8.8714,-8.9197,-8.9216,-8.9232,-8.9473,-8.9514,-8.955,0,0,0,0,0,-8.8758,-8.8943,-8.8875,-8.8892,-8.8949,-8.9037,-8.9043,-8.895,-8.8837,-8.8921,-8.8879,-8.8765,-8.8953,-8.8847,-8.8866,-8.8995,-8.9189,-8.921,-8.9231,-8.9456,-8.9506,-8.9549,0,0,0,0,0,0,-8.8997,-8.8936,-8.886,-8.9039,-8.9045,-8.8998,-8.9101,-8.9007,-8.9044,-8.902,-8.8904,-8.89,-8.9057,-8.9041,-8.8924,-8.9211,-8.905,-8.9076,-8.9215,-8.9262,-8.93,-8.9298,-8.8721,0,0,0,0,0,-8.9071,-8.9147,-8.909,-8.9254,-8.926,-8.9182,-8.9216,-8.9144,-8.9145,-8.9146,-8.9114,-8.9119,-8.9178,-8.922,-8.9272,-8.9471,-8.9461,-8.957,-8.9609,-8.964,-8.9662,-8.9764,-8.981,-8.9311,-8.9311,-8.9311,0,0,-8.9223,-8.92,-8.9255,-8.9301,-8.9296,-8.9377,-8.9185,-8.9279,-8.9337,-8.916,-8.9288,-8.9266,-8.9264,-8.9434,-8.9507,-8.9425,-8.9799,-8.9667,-8.9693,-8.9698,-8.979,-8.9837,-8.988,-8.9325,-8.9323,-8.9321,0,0,-8.9541,-8.9533,-8.9666,-8.9666,-8.9662,-8.9609,-8.9642,-8.961,-8.9587,-8.9715,-8.9583,-8.9652,-8.9758,-8.9761,-8.9776,-9.0098,-8.9993,-9.0119,-9.0317,-9.0417,-9.0456,-9.0491,-9.0601,-9.0643,-9.0142,-9.0143,-9.0143,0,-8.9731,-8.9847,-8.9747,-8.9849,-8.9872,-8.9717,-8.985,-8.9856,-8.987,-8.9889,-8.9798,-8.9926,-8.9915,-9.0081,-9.0159,-9.0179,-9.0211,-9.0118,-9.0459,-9.0492,-9.0523,-9.0627,-9.0669,-9.0158,-9.0156,-9.0154,-9.0153,0,-9.0079,-9.0162,-9.0271,-9.0286,-9.0323,-9.0441,-9.0357,-9.0406,-9.0333,-9.0289,-9.042,-9.0401,-9.0444,-9.048,-9.0409,-9.0637,-9.0585,-9.048,-9.0315,-9.0587,-9.0682,-9.0722,-9.0179,-9.0174,-9.0169,-9.0166,0,0,-9.0543,-9.0504,-9.0544,-9.0549,-9.0534,-9.0596,-9.0708,-9.075,-9.0792,-9.0809,-9.0896,-9.0991,-9.0892,-9.091,-9.0839,-9.0928,-9.1179,-9.0809,-9.0807,-9.0874,-9.1424,-9.1501,-9.1549,-9.1111,-9.1119,-9.1125,-9.1423,0,-9.0847,-9.1032,-9.0946,-9.1141,-9.1215,-9.107,-9.1166,-9.1168,-9.1131,-9.1188,-9.1147,-9.1214,-9.1081,-9.109,-9.1172,-9.1131,-9.1287,-9.1109,-9.1189,-9.1194,-9.1189,-9.1599,-9.1681,-9.1963,-9.146,-9.1466,-9.1471,0,-9.1225,-9.1255,-9.1458,-9.1428,-9.1456,-9.1544,-9.1575,-9.1633,-9.1632,-9.1598,-9.162,-9.1528,-9.1634,-9.1476,-9.1619,-9.15,-9.1528,-9.1514,-9.1523,-9.1522,-9.1345,-9.1606,-9.2051,-9.2092,-9.153,-9.1525,-9.1521,0,-9.1538,-9.163,-9.1762,-9.1771,-9.1741,-9.1806,-9.1797,-9.1786,-9.1817,-9.1846,-9.1864,-9.1906,-9.1928,-9.1962,-9.1883,-9.1776,-9.2037,-9.1872,-9.2009,-9.2012,-9.2066,-9.2063,-9.2518,-9.2095,-9.2094,-9.2093,-9.2092,0,-9.1882,-9.2011,-9.1901,-9.1982,-9.2122,-9.2022,-9.2163,-9.2138,-9.2131,-9.2204,-9.2083,-9.2154,-9.2049,-9.211,-9.205,-9.2176,-9.2188,-9.2162,-9.2144,-9.217,-9.2173,-9.2183,-9.216,-9.2104,-9.2102,-9.21,-9.2098,0,-9.2253,-9.2185,-9.2319,-9.228,-9.2273,-9.2378,-9.2343,-9.2416,-9.2372,-9.2466,-9.2483,-9.2413,-9.2478,-9.2405,-9.2466,-9.2425,-9.2594,-9.2549,-9.2594,-9.2579,-9.2719,-9.2705,-9.3192,-9.325,-9.2795,-9.28,-9.2803,0,-9.2475,-9.257,-9.2541,-9.2581,-9.2579,-9.2645,-9.2676,-9.2583,-9.262,-9.2626,-9.2698,-9.2753,-9.2791,-9.2903,-9.2857,-9.2903,-9.2855,-9.3023,-9.2861,-9.2883,-9.2852,-9.2845,-9.2852,-9.3054,-9.306,-9.3064,-9.3068,0,-9.2874,-9.2836,-9.2884,-9.2923,-9.2963,-9.2988,-9.3004,-9.3044,-9.2947,-9.2995,-9.306,-9.309,-9.3151,-9.3207,-9.3239,-9.3229,-9.3132,-9.312,-9.3153,-9.3178,-9.3198,-9.3185,-9.2678,-9.3108,-9.3104,-9.3101,-9.3099,-9.3097,-9.3173,-9.325,-9.3241,-9.3299,-9.3302,-9.332,-9.3385,-9.335,-9.3402,-9.3444,-9.3387,-9.3467,-9.3463,-9.3496,-9.3498,-9.3559,-9.3487,-9.3537,-9.3548,-9.3561,-9.3579,-9.3194,-9.3565,-9.3564,-9.3563,-9.3562,-9.3561,0,-9.3562,-9.355,-9.3605,-9.363,-9.3676,-9.3583,-9.3596,-9.364,-9.3712,-9.3717,-9.3758,-9.3832,-9.3886,-9.3846,-9.3891,-9.3947,-9.3904,-9.3962,-9.3954,-9.3952,-9.3643,-9.3608,-9.3996,-9.3996,-9.3996,-9.3996,-9.3995,-9.3995,-9.3769,-9.3893,-9.3855,-9.3978,-9.3965,-9.4042,-9.4057,-9.4073,-9.4075,-9.4164,-9.4207,-9.4181,-9.4168,-9.4211,-9.4256,-9.4243,-9.4263,-9.4336,-9.4307,-9.4018,-9.3975,-9.3934,-9.3899,-9.4342,-9.4343,-9.461,-9.4612,-9.4614]},{"header":{"parameterUnit":"m.s-1","parameterCategory":1,"la1":30.2991,"la2":30.254,"lo1":-89.0895,"lo2":-89.0444,"dy":0.0017,"dx":0.0017,"nx":28,"ny":28,"refTime":"2024-06-18T09:00:00:Z","depth":0,"parameterNumber":3,"parameterNumberName":"V-component_of_WINDS"},"data":[0,0,0,0,0,0,0,0,0,0,0,0,0,0,0,0,0,0,0,0,0,0,0,0,0,0,0,0,0,0,0,0,0,0,0,0,0,0,0,0,0,0,0,0,0,0,0,0,0,0,0,0,0,0,0,0,0,0,2.5338,2.5338,0,2.5382,2.5382,2.5383,2.5333,2.5331,2.5329,2.5327,2.5371,2.5373,2.5376,0,0,0,0,0,0,0,0,0,0,0,0,0,2.5211,2.5213,2.5338,2.5338,2.5339,2.5382,2.5382,2.5383,2.5333,2.5331,2.5329,2.5326,2.537,2.5373,2.5377,0,0,0,0,0,0,0,0,0,0,0,0,0,2.5261,2.5214,2.5338,2.5319,2.5318,2.5382,2.5382,2.5383,2.5334,2.5331,2.5328,2.5325,2.5369,2.5373,2.5377,2.546,0,0,2.539,2.5392,0,0,0,0,0,0,0,0,2.5259,2.5266,2.5321,2.5321,2.5319,2.5349,2.5353,2.5409,2.5334,2.5328,2.5327,2.5324,2.5366,2.537,2.5384,2.5462,2.5464,2.5391,2.5393,2.5395,2.5397,0,0,0,0,0,0,0,2.5255,2.5264,2.5355,2.5322,2.5321,2.5309,2.5313,2.5364,2.5362,2.5328,2.5325,2.5331,2.5364,2.538,2.5385,2.5465,2.5391,2.5395,2.5397,2.5399,2.5615,2.5618,0,0,0,0,0,0,2.5254,2.5261,2.5354,2.5356,2.5282,2.5313,2.5318,2.5342,2.5361,2.5361,2.5333,2.5328,2.5374,2.538,2.5386,2.5486,2.5395,2.5399,2.5402,2.5612,2.5616,2.5619,0,0,0,0,0,0,2.5251,2.5263,2.5352,2.5308,2.5318,2.5319,2.5346,2.5345,2.536,2.5365,2.5364,2.5349,2.5372,2.538,2.5443,2.5487,2.5401,2.5405,2.5609,2.5613,2.5618,2.5685,0,0,0,0,0,0,2.5248,2.5262,2.5293,2.5309,2.5321,2.5408,2.5349,2.5348,2.5368,2.5362,2.538,2.538,2.5371,2.5437,2.5447,2.5491,2.5409,2.5605,2.5611,2.5616,2.5679,2.5692,2.5703,0,0,0,0,0,2.5243,2.531,2.5295,2.5307,2.536,2.541,2.5417,2.5405,2.5372,2.5404,2.5407,2.538,2.5481,2.5443,2.5455,2.5501,2.5602,2.5609,2.5616,2.5674,2.5689,2.5702,0,0,0,0,0,0,2.5298,2.5311,2.5295,2.5369,2.5389,2.5402,2.5441,2.5422,2.5451,2.5444,2.5428,2.5432,2.5499,2.5506,2.5465,2.5584,2.5536,2.5545,2.5576,2.5591,2.5602,2.5599,2.5412,0,0,0,0,0,2.5319,2.5359,2.5368,2.5432,2.5443,2.5441,2.5462,2.5452,2.5471,2.5479,2.5487,2.5507,2.5544,2.5568,2.5601,2.5681,2.5684,2.5718,2.573,2.5739,2.5748,2.5792,2.5807,2.5643,2.5643,2.5642,0,0,2.5362,2.5374,2.54,2.5444,2.5458,2.55,2.5448,2.5494,2.5525,2.5486,2.5546,2.5553,2.5574,2.5646,2.5678,2.5654,2.5794,2.5748,2.5756,2.5759,2.58,2.5816,2.583,2.5647,2.5646,2.5646,0,0,2.5461,2.5474,2.553,2.5546,2.5569,2.5567,2.5581,2.5598,2.5601,2.5661,2.5633,2.567,2.5732,2.5749,2.5766,2.5875,2.5852,2.5887,2.5947,2.599,2.6003,2.6015,2.6054,2.6068,2.5895,2.5895,2.5896,0,2.5511,2.5573,2.5561,2.5609,2.563,2.5598,2.5655,2.5671,2.5703,2.5718,2.5691,2.5771,2.5783,2.5859,2.5886,2.59,2.5915,2.5884,2.6003,2.6014,2.6024,2.6062,2.6077,2.5899,2.5899,2.5899,2.5898,0,2.5634,2.5678,2.572,2.5753,2.5779,2.5831,2.5827,2.5854,2.5842,2.5843,2.5906,2.592,2.5956,2.5974,2.5962,2.6049,2.6033,2.6005,2.5956,2.6044,2.6079,2.6093,2.5905,2.5904,2.5903,2.5902,0,0,2.5767,2.5795,2.581,2.5826,2.585,2.5884,2.5936,2.5972,2.5996,2.6021,2.6063,2.6119,2.6093,2.6112,2.6102,2.614,2.6227,2.6107,2.6108,2.6129,2.6325,2.6346,2.6362,2.6212,2.6215,2.6217,2.6323,0,2.5867,2.5956,2.5948,2.6033,2.6074,2.6046,2.6091,2.6111,2.6114,2.6149,2.6153,2.6193,2.6156,2.6168,2.6204,2.6209,2.6266,2.6201,2.6252,2.6254,2.6247,2.638,2.6402,2.6501,2.6336,2.6339,2.634,0,2.5995,2.6025,2.6115,2.6135,2.6152,2.6192,2.6226,2.626,2.6283,2.6283,2.6306,2.629,2.6343,2.6294,2.6366,2.6323,2.6343,2.6349,2.6353,2.6356,2.6302,2.6387,2.6533,2.6548,2.6362,2.636,2.6358,0,2.6083,2.6146,2.6208,2.6223,2.6247,2.6277,2.6289,2.6309,2.6332,2.6362,2.6377,2.6413,2.6432,2.646,2.6455,2.642,2.6529,2.6479,2.653,2.653,2.6553,2.6552,2.6704,2.6568,2.6567,2.6567,2.6567,0,2.6195,2.6251,2.6249,2.6287,2.6349,2.6339,2.6401,2.6409,2.6428,2.6468,2.6446,2.6483,2.6474,2.6512,2.6508,2.6569,2.6577,2.6579,2.6577,2.6581,2.6581,2.6593,2.6586,2.6571,2.657,2.6569,2.6569,0,2.6303,2.6304,2.637,2.6389,2.6395,2.6441,2.6457,2.6493,2.6496,2.6546,2.6558,2.6562,2.6605,2.6603,2.6651,2.6649,2.6724,2.6714,2.6717,2.6714,2.6765,2.6761,2.693,2.6952,2.6802,2.6804,2.6805,0,2.6375,2.6417,2.6442,2.6467,2.6481,2.6522,2.6547,2.654,2.6566,2.6597,2.6629,2.6671,2.6703,2.6774,2.6781,2.6819,2.681,2.6867,2.6815,2.6818,2.6811,2.6808,2.6813,2.6876,2.6878,2.6879,2.688,0,2.6501,2.65,2.6536,2.6574,2.6604,2.6632,2.6658,2.6681,2.6676,2.6707,2.6752,2.6777,2.6828,2.687,2.6906,2.6918,2.6899,2.6897,2.6911,2.6914,2.6914,2.6915,2.6744,2.6893,2.6892,2.6891,2.689,2.689,2.6593,2.663,2.6654,2.6696,2.6715,2.6741,2.6777,2.6785,2.6822,2.6863,2.6857,2.6907,2.6931,2.6978,2.6993,2.7033,2.7012,2.7032,2.7037,2.7042,2.7048,2.6909,2.7039,2.7039,2.7039,2.7038,2.7038,0,2.6719,2.6733,2.6772,2.681,2.6843,2.6824,2.6853,2.6882,2.6926,2.695,2.6984,2.7036,2.7077,2.7089,2.7128,2.7157,2.715,2.7168,2.7165,2.7169,2.7064,2.7048,2.7174,2.7174,2.7174,2.7174,2.7174,2.7174,2.6788,2.685,2.6852,2.6925,2.6939,2.6989,2.7007,2.7031,2.705,2.7109,2.7144,2.7152,2.7171,2.7212,2.725,2.7252,2.7267,2.7289,2.7288,2.719,2.7176,2.7163,2.7148,2.7293,2.7293,2.739,2.7391,2.7392]}]]